QPF
0.02 0.01 0.02 0.02 0.02 0.01 0.01 0.01 0.01 0.01 0.00 0.01 0.01 0.00 0.00 0.00 0.01 0.01 0.02 0.02 0.02 0.02 0.03 0.03 0.03 0.02 0.01 0.01 0.01 0.00 0.00 0.01 0.01 0.01 0.02 0.05 0.06 0.05 0.03 0.02 0.01 0.01 0.01 0.01
0.02 0.01 0.01 0.01 0.01 0.02 0.01 0.01 0.00 0.00 0.01 0.00 0.00 0.00 0.00 0.00 0.00 0.01 0.01 0.02 0.03 0.03 0.03 0.03 0.02 0.01 0.01 0.01 0.00 0.00 0.01 0.01 0.02 0.02 0.03 0.04 0.05 0.05 0.03 0.02 0.01 0.01 0.00 0.00
0.02 0.01 0.01 0.01 0.00 0.00 0.01 0.00 0.00 0.00 0.00 0.00 0.00 0.00 0.00 0.00 0.00 0.01 0.01 0.01 0.02 0.02 0.03 0.03 0.02 0.01 0.01 0.01 0.01 0.01 0.01 0.02 0.02 0.03 0.05 0.05 0.05 0.04 0.02 0.02 0.01 0.01 0.00 0.00
0.02 0.01 0.01 0.00 0.00 0.00 0.00 0.00 0.00 0.00 0.00 0.00 0.00 0.01 0.01 0.01 0.01 0.01 0.01 0.02 0.02 0.02 0.02 0.02 0.01 0.01 0.01 0.01 0.01 0.01 0.02 0.02 0.02 0.03 0.05 0.06 0.05 0.04 0.03 0.02 0.02 0.02 0.02 0.01
0.02 0.01 0.00 0.00 0.00 0.00 0.00 0.00 0.00 0.00 0.00 0.00 0.00 0.00 0.01 0.01 0.01 0.01 0.01 0.01 0.01 0.01 0.01 0.01 0.01 0.01 0.02 0.02 0.02 0.02 0.02 0.03 0.03 0.03 0.04 0.05 0.04 0.04 0.04 0.04 0.03 0.03 0.03 0.01
0.02 0.02 0.01 0.00 0.00 0.00 0.01 0.01 0.00 0.00 0.00 0.00 0.00 0.00 0.00 0.00 0.01 0.01 0.01 0.00 0.00 0.00 0.01 0.01 0.01 0.01 0.01 0.02 0.02 0.03 0.04 0.05 0.05 0.04 0.06 0.07 0.06 0.05 0.05 0.04 0.04 0.03 0.03 0.01
0.02 0.02 0.01 0.00 0.00 0.00 0.01 0.00 0.00 0.00 0.00 0.00 0.00 0.00 0.01 0.01 0.00 0.01 0.01 0.01 0.01 0.00 0.01 0.01 0.01 0.01 0.01 0.02 0.02 0.02 0.03 0.04 0.04 0.04 0.05 0.06 0.05 0.04 0.03 0.02 0.02 0.02 0.02 0.01
0.02 0.02 0.01 0.00 0.01 0.01 0.01 0.00 0.00 0.00 0.00 0.00 0.00 0.01 0.01 0.02 0.02 0.02 0.02 0.01 0.01 0.01 0.01 0.01 0.00 0.00 0.00 0.01 0.02 0.02 0.02 0.02 0.03 0.03 0.03 0.03 0.02 0.02 0.02 0.02 0.01 0.01 0.01 0.01
0.03 0.02 0.01 0.02 0.02 0.01 0.00 0.00 0.00 0.00 0.00 0.00 0.00 0.00 0.01 0.01 0.02 0.02 0.02 0.02 0.01 0.01 0.01 0.01 0.00 0.00 0.01 0.01 0.01 0.01 0.01 0.02 0.02 0.03 0.02 0.02 0.02 0.02 0.01 0.01 0.01 0.01 0.00 0.00
0.03 0.03 0.02 0.03 0.02 0.01 0.00 0.00 0.00 0.00 0.00 0.00 0.00 0.00 0.00 0.01 0.01 0.01 0.01 0.01 0.01 0.01 0.01 0.01 0.01 0.00 0.01 0.01 0.01 0.01 0.01 0.01 0.02 0.02 0.02 0.03 0.03 0.02 0.01 0.01 0.01 0.01 0.01 0.01
0.04 0.05 0.03 0.04 0.01 0.01 0.00 0.00 0.00 0.00 0.00 0.00 0.00 0.00 0.00 0.00 0.00 0.00 0.00 0.01 0.01 0.01 0.01 0.01 0.01 0.01 0.01 0.01 0.01 0.01 0.01 0.01 0.02 0.02 0.03 0.03 0.03 0.02 0.02 0.02 0.01 0.01 0.01 0.01
0.05 0.05 0.03 0.03 0.01 0.01 0.00 0.00 0.00 0.00 0.00 0.00 0.00 0.00 0.00 0.00 0.00 0.00 0.00 0.01 0.01 0.01 0.01 0.01 0.01 0.01 0.01 0.01 0.01 0.01 0.01 0.01 0.02 0.02 0.03 0.03 0.03 0.03 0.02 0.02 0.02 0.02 0.01 0.01
0.02 0.04 0.03 0.02 0.00 0.00 0.00 0.00 0.00 0.00 0.00 0.00 0.00 0.00 0.00 0.00 0.00 0.00 0.00 0.00 0.00 0.00 0.00 0.00 0.00 0.00 0.01 0.01 0.01 0.01 0.02 0.01 0.02 0.03 0.04 0.03 0.02 0.02 0.02 0.01 0.01 0.01 0.01 0.02
0.00 0.02 0.03 0.01 0.01 0.00 0.00 0.00 0.00 0.00 0.00 0.00 0.00 0.00 0.00 0.00 0.00 0.00 0.00 0.00 0.00 0.00 0.00 0.00 0.00 0.00 0.01 0.01 0.01 0.01 0.02 0.02 0.02 0.04 0.06 0.06 0.05 0.03 0.02 0.01 0.01 0.01 0.01 0.01
0.00 0.01 0.02 0.01 0.01 0.01 0.00 0.00 0.00 0.00 0.00 0.00 0.00 0.00 0.00 0.00 0.00 0.00 0.00 0.00 0.00 0.00 0.00 0.00 0.00 0.00 0.00 0.01 0.01 0.02 0.02 0.02 0.03 0.05 0.07 0.07 0.06 0.04 0.03 0.02 0.02 0.03 0.02 0.02
0.00 0.00 0.01 0.01 0.01 0.01 0.00 0.00 0.00 0.00 0.00 0.00 0.00 0.00 0.00 0.00 0.00 0.00 0.00 0.00 0.00 0.00 0.00 0.00 0.00 0.00 0.00 0.01 0.01 0.01 0.02 0.03 0.03 0.04 0.05 0.06 0.05 0.04 0.04 0.03 0.03 0.04 0.04 0.04
0.01 0.00 0.01 0.01 0.01 0.01 0.00 0.00 0.00 0.00 0.00 0.00 0.00 0.00 0.00 0.00 0.00 0.00 0.00 0.00 0.00 0.00 0.00 0.00 0.01 0.00 0.00 0.00 0.01 0.01 0.01 0.02 0.02 0.03 0.03 0.04 0.04 0.04 0.04 0.04 0.04 0.03 0.03 0.03
0.00 0.00 0.00 0.00 0.00 0.00 0.00 0.00 0.00 0.00 0.00 0.00 0.00 0.00 0.00 0.00 0.00 0.00 0.00 0.00 0.00 0.00 0.00 0.00 0.01 0.00 0.00 0.00 0.00 0.00 0.00 0.00 0.01 0.01 0.01 0.01 0.01 0.02 0.03 0.03 0.03 0.02 0.02 0.01
0.00 0.00 0.00 0.00 0.00 0.00 0.00 0.00 0.00 0.00 0.00 0.00 0.00 0.00 0.00 0.00 0.00 0.00 0.00 0.00 0.00 0.00 0.00 0.00 0.01 0.01 0.00 0.00 0.00 0.00 0.00 0.00 0.00 0.00 0.00 0.00 0.00 0.00 0.01 0.01 0.01 0.01 0.01 0.00
0.01 0.01 0.00 0.00 0.00 0.00 0.00 0.00 0.00 0.00 0.00 0.00 0.00 0.00 0.00 0.01 0.00 0.00 0.00 0.00 0.00 0.00 0.00 0.01 0.01 0.01 0.01 0.01 0.01 0.00 0.00 0.00 0.00 0.00 0.00 0.00 0.00 0.00 0.00 0.00 0.00 0.00 0.00 0.00
0.00 0.00 0.00 0.00 0.00 0.00 0.00 0.00 0.00 0.00 0.00 0.00 0.00 0.00 0.00 0.00 0.01 0.01 0.00 0.00 0.00 0.00 0.01 0.01 0.01 0.01 0.01 0.01 0.01 0.00 0.00 0.00 0.00 0.00 0.00 0.01 0.01 0.00 0.00 0.00 0.00 0.00 0.00 0.00
0.00 0.00 0.00 0.00 0.00 0.00 0.00 0.00 0.00 0.00 0.00 0.00 0.00 0.00 0.00 0.00 0.00 0.00 0.00 0.00 0.01 0.01 0.01 0.01 0.00 0.01 0.01 0.01 0.01 0.00 0.00 0.00 0.00 0.00 0.00 0.01 0.01 0.01 0.01 0.01 0.01 0.00 0.01 0.01
0.01 0.01 0.00 0.00 0.00 0.00 0.00 0.00 0.00 0.00 0.00 0.00 0.00 0.00 0.00 0.00 0.00 0.00 0.00 0.00 0.00 0.01 0.01 0.01 0.00 0.01 0.01 0.01 0.00 0.00 0.00 0.00 0.00 0.00 0.00 0.00 0.01 0.01 0.01 0.01 0.01 0.01 0.01 0.01
0.01 0.01 0.00 0.00 0.00 0.00 0.00 0.00 0.00 0.00 0.00 0.00 0.00 0.00 0.00 0.00 0.00 0.00 0.00 0.00 0.00 0.01 0.01 0.01 0.01 0.01 0.01 0.00 0.00 0.00 0.00 0.00 0.00 0.00 0.00 0.01 0.01 0.01 0.01 0.01 0.01 0.01 0.00 0.00
0.01 0.00 0.00 0.00 0.00 0.00 0.00 0.00 0.00 0.00 0.00 0.00 0.00 0.00 0.00 0.00 0.00 0.00 0.00 0.00 0.00 0.00 0.00 0.01 0.01 0.01 0.00 0.00 0.00 0.00 0.00 0.00 0.00 0.00 0.00 0.00 0.00 0.01 0.01 0.01 0.01 0.01 0.01 0.01
0.00 0.00 0.00 0.00 0.00 0.00 0.00 0.00 0.00 0.00 0.00 0.00 0.00 0.00 0.00 0.00 0.00 0.00 0.00 0.00 0.01 0.00 0.00 0.00 0.01 0.01 0.00 0.00 0.00 0.00 0.00 0.00 0.00 0.00 0.00 0.00 0.00 0.01 0.01 0.01 0.01 0.01 0.01 0.01
0.00 0.00 0.00 0.00 0.00 0.00 0.01 0.01 0.01 0.01 0.02 0.01 0.01 0.00 0.00 0.00 0.00 0.00 0.00 0.00 0.01 0.00 0.00 0.00 0.00 0.00 0.00 0.01 0.01 0.00 0.00 0.00 0.00 0.00 0.00 0.01 0.01 0.01 0.01 0.01 0.01 0.01 0.01 0.01
MSLP
1004.18 1003.97 1003.99 1004.20 1004.50 1004.78 1004.91 1004.80 1004.38 1003.66 1002.67 1001.50 1000.29 999.18 998.29 997.72 997.51 997.67 998.17 998.92 999.85 1000.86 1001.90 1002.90 1003.86 1004.78 1005.67 1006.54 1007.43 1008.32 1009.22 1010.10 1010.95 1011.75 1012.48 1013.14 1013.75 1014.32 1014.88 1015.43 1015.99 1016.56 1017.14 1017.69
1003.89 1003.67 1003.67 1003.84 1004.11 1004.37 1004.51 1004.45 1004.12 1003.52 1002.66 1001.65 1000.57 999.56 998.72 998.15 997.90 997.96 998.33 998.95 999.75 1000.65 1001.60 1002.54 1003.46 1004.36 1005.24 1006.12 1006.99 1007.88 1008.77 1009.65 1010.50 1011.30 1012.06 1012.76 1013.42 1014.04 1014.65 1015.25 1015.85 1016.45 1017.03 1017.58
1003.74 1003.53 1003.51 1003.64 1003.86 1004.07 1004.19 1004.13 1003.85 1003.33 1002.60 1001.71 1000.77 999.87 999.11 998.57 998.30 998.30 998.58 999.09 999.76 1000.55 1001.40 1002.27 1003.14 1004.00 1004.85 1005.71 1006.57 1007.44 1008.31 1009.18 1010.03 1010.84 1011.62 1012.35 1013.05 1013.72 1014.37 1015.01 1015.64 1016.26 1016.85 1017.40
1003.78 1003.59 1003.56 1003.65 1003.80 1003.94 1003.99 1003.90 1003.62 1003.14 1002.48 1001.71 1000.88 1000.09 999.42 998.93 998.67 998.65 998.86 999.28 999.85 1000.54 1001.29 1002.08 1002.88 1003.69 1004.51 1005.34 1006.18 1007.04 1007.89 1008.75 1009.59 1010.40 1011.19 1011.94 1012.67 1013.37 1014.05 1014.71 1015.36 1015.99 1016.58 1017.13
1004.04 1003.88 1003.84 1003.88 1003.96 1004.01 1003.98 1003.82 1003.50 1003.02 1002.40 1001.70 1000.95 1000.26 999.67 999.24 999.00 998.98 999.15 999.50 999.99 1000.58 1001.25 1001.96 1002.70 1003.46 1004.23 1005.03 1005.85 1006.68 1007.53 1008.37 1009.20 1010.01 1010.80 1011.56 1012.29 1013.00 1013.69 1014.36 1015.01 1015.64 1016.23 1016.77
1004.52 1004.39 1004.35 1004.35 1004.35 1004.31 1004.18 1003.94 1003.56 1003.05 1002.44 1001.76 1001.09 1000.46 999.93 999.55 999.34 999.31 999.45 999.74 1000.16 1000.67 1001.25 1001.89 1002.56 1003.26 1004.00 1004.77 1005.57 1006.38 1007.22 1008.05 1008.87 1009.68 1010.46 1011.21 1011.93 1012.63 1013.31 1013.96 1014.60 1015.21 1015.79 1016.33
1005.17 1005.07 1005.02 1004.99 1004.93 1004.81 1004.59 1004.26 1003.82 1003.27 1002.65 1001.99 1001.35 1000.77 1000.29 999.94 999.74 999.70 999.80 1000.03 1000.37 1000.80 1001.29 1001.85 1002.45 1003.10 1003.79 1004.53 1005.31 1006.11 1006.94 1007.76 1008.58 1009.38 1010.14 1010.88 1011.58 1012.26 1012.90 1013.53 1014.14 1014.72 1015.28 1015.81
1005.89 1005.81 1005.76 1005.71 1005.61 1005.43 1005.16 1004.77 1004.28 1003.70 1003.07 1002.42 1001.80 1001.24 1000.78 1000.45 1000.24 1000.17 1000.21 1000.37 1000.62 1000.95 1001.35 1001.82 1002.34 1002.93 1003.57 1004.28 1005.04 1005.83 1006.65 1007.48 1008.29 1009.08 1009.84 1010.55 1011.23 1011.87 1012.48 1013.07 1013.64 1014.19 1014.73 1015.26
1006.56 1006.49 1006.45 1006.39 1006.28 1006.08 1005.78 1005.37 1004.87 1004.29 1003.67 1003.04 1002.44 1001.90 1001.45 1001.10 1000.87 1000.74 1000.71 1000.77 1000.92 1001.13 1001.42 1001.78 1002.21 1002.72 1003.31 1003.98 1004.71 1005.50 1006.31 1007.14 1007.95 1008.74 1009.48 1010.18 1010.83 1011.44 1012.02 1012.58 1013.11 1013.64 1014.16 1014.68
1007.07 1007.01 1006.98 1006.93 1006.82 1006.64 1006.36 1005.97 1005.50 1004.95 1004.37 1003.78 1003.21 1002.69 1002.25 1001.88 1001.60 1001.41 1001.28 1001.23 1001.25 1001.33 1001.48 1001.72 1002.05 1002.47 1002.99 1003.60 1004.30 1005.07 1005.88 1006.70 1007.52 1008.31 1009.05 1009.74 1010.38 1010.97 1011.52 1012.05 1012.57 1013.08 1013.59 1014.12
1007.38 1007.31 1007.28 1007.25 1007.18 1007.03 1006.80 1006.48 1006.07 1005.59 1005.08 1004.55 1004.03 1003.55 1003.11 1002.73 1002.40 1002.12 1001.90 1001.72 1001.60 1001.54 1001.54 1001.65 1001.85 1002.16 1002.60 1003.15 1003.80 1004.54 1005.33 1006.15 1006.97 1007.76 1008.50 1009.19 1009.83 1010.41 1010.96 1011.49 1012.00 1012.51 1013.04 1013.57
1007.49 1007.42 1007.38 1007.37 1007.33 1007.23 1007.06 1006.82 1006.50 1006.13 1005.70 1005.26 1004.82 1004.38 1003.96 1003.56 1003.19 1002.84 1002.51 1002.21 1001.95 1001.74 1001.60 1001.56 1001.63 1001.83 1002.17 1002.64 1003.23 1003.93 1004.69 1005.49 1006.30 1007.09 1007.84 1008.54 1009.18 1009.78 1010.34 1010.88 1011.41 1011.94 1012.48 1013.04
1007.52 1007.42 1007.37 1007.36 1007.34 1007.28 1007.18 1007.01 1006.79 1006.51 1006.19 1005.84 1005.47 1005.09 1004.70 1004.30 1003.90 1003.49 1003.07 1002.67 1002.28 1001.94 1001.67 1001.49 1001.44 1001.52 1001.74 1002.12 1002.64 1003.27 1003.98 1004.75 1005.54 1006.32 1007.07 1007.78 1008.44 1009.06 1009.65 1010.21 1010.77 1011.34 1011.91 1012.50
1007.59 1007.46 1007.38 1007.34 1007.32 1007.28 1007.21 1007.10 1006.95 1006.76 1006.53 1006.26 1005.97 1005.64 1005.29 1004.91 1004.49 1004.04 1003.56 1003.08 1002.60 1002.15 1001.76 1001.47 1001.29 1001.26 1001.38 1001.66 1002.08 1002.63 1003.28 1003.99 1004.74 1005.50 1006.24 1006.95 1007.62 1008.27 1008.88 1009.48 1010.08 1010.68 1011.29 1011.91
1007.85 1007.66 1007.53 1007.45 1007.38 1007.32 1007.26 1007.17 1007.06 1006.92 1006.75 1006.54 1006.31 1006.03 1005.72 1005.35 1004.94 1004.47 1003.97 1003.43 1002.89 1002.37 1001.90 1001.51 1001.24 1001.11 1001.12 1001.30 1001.62 1002.07 1002.63 1003.27 1003.96 1004.67 1005.38 1006.07 1006.75 1007.40 1008.04 1008.67 1009.30 1009.93 1010.57 1011.22
1008.37 1008.12 1007.92 1007.76 1007.63 1007.51 1007.40 1007.29 1007.17 1007.04 1006.90 1006.73 1006.53 1006.29 1006.00 1005.66 1005.26 1004.80 1004.29 1003.74 1003.17 1002.62 1002.10 1001.66 1001.31 1001.09 1001.01 1001.08 1001.30 1001.64 1002.10 1002.64 1003.24 1003.87 1004.53 1005.19 1005.84 1006.49 1007.14 1007.78 1008.43 1009.08 1009.74 1010.40
1009.14 1008.84 1008.56 1008.30 1008.08 1007.87 1007.69 1007.52 1007.35 1007.20 1007.03 1006.86 1006.67 1006.45 1006.18 1005.86 1005.48 1005.05 1004.56 1004.02 1003.46 1002.90 1002.37 1001.90 1001.51 1001.23 1001.06 1001.04 1001.14 1001.37 1001.70 1002.13 1002.62 1003.16 1003.73 1004.32 1004.93 1005.55 1006.18 1006.81 1007.46 1008.12 1008.78 1009.44
1010.09 1009.73 1009.36 1009.02 1008.69 1008.39 1008.11 1007.85 1007.62 1007.41 1007.20 1007.01 1006.80 1006.57 1006.31 1006.01 1005.65 1005.25 1004.79 1004.29 1003.76 1003.23 1002.71 1002.23 1001.82 1001.49 1001.26 1001.15 1001.14 1001.25 1001.45 1001.74 1002.11 1002.53 1003.00 1003.51 1004.05 1004.61 1005.19 1005.80 1006.42 1007.06 1007.71 1008.36
1011.06 1010.64 1010.21 1009.78 1009.37 1008.97 1008.61 1008.27 1007.96 1007.68 1007.42 1007.18 1006.94 1006.69 1006.43 1006.13 1005.80 1005.43 1005.01 1004.56 1004.07 1003.58 1003.09 1002.62 1002.20 1001.85 1001.56 1001.37 1001.26 1001.25 1001.33 1001.48 1001.71 1002.01 1002.36 1002.76 1003.21 1003.70 1004.22 1004.77 1005.36 1005.96 1006.58 1007.19
1011.87 1011.42 1010.95 1010.47 1009.99 1009.53 1009.10 1008.69 1008.32 1007.98 1007.67 1007.38 1007.10 1006.83 1006.56 1006.26 1005.94 1005.60 1005.22 1004.81 1004.37 1003.92 1003.46 1003.02 1002.60 1002.22 1001.90 1001.64 1001.44 1001.32 1001.28 1001.30 1001.40 1001.57 1001.80 1002.09 1002.43 1002.84 1003.28 1003.78 1004.30 1004.86 1005.43 1006.02
1012.39 1011.94 1011.46 1010.96 1010.47 1009.98 1009.51 1009.07 1008.66 1008.28 1007.93 1007.60 1007.29 1006.99 1006.70 1006.40 1006.09 1005.75 1005.40 1005.02 1004.63 1004.21 1003.79 1003.37 1002.96 1002.56 1002.20 1001.89 1001.62 1001.40 1001.25 1001.16 1001.14 1001.18 1001.30 1001.48 1001.73 1002.04 1002.41 1002.83 1003.30 1003.80 1004.33 1004.87
1012.59 1012.17 1011.70 1011.23 1010.74 1010.27 1009.81 1009.36 1008.94 1008.54 1008.17 1007.82 1007.48 1007.16 1006.84 1006.53 1006.21 1005.88 1005.54 1005.18 1004.81 1004.42 1004.02 1003.61 1003.20 1002.80 1002.42 1002.05 1001.72 1001.43 1001.19 1001.01 1000.89 1000.83 1000.84 1000.93 1001.09 1001.32 1001.61 1001.96 1002.37 1002.81 1003.29 1003.79
1012.51 1012.12 1011.71 1011.28 1010.84 1010.41 1009.98 1009.56 1009.15 1008.76 1008.38 1008.01 1007.65 1007.30 1006.96 1006.62 1006.28 1005.94 1005.60 1005.24 1004.88 1004.50 1004.11 1003.71 1003.30 1002.89 1002.49 1002.09 1001.72 1001.37 1001.07 1000.81 1000.61 1000.47 1000.40 1000.41 1000.49 1000.64 1000.86 1001.15 1001.49 1001.88 1002.31 1002.77
1012.25 1011.92 1011.57 1011.20 1010.83 1010.45 1010.07 1009.69 1009.30 1008.92 1008.54 1008.16 1007.78 1007.40 1007.03 1006.66 1006.30 1005.93 1005.56 1005.19 1004.82 1004.43 1004.04 1003.64 1003.23 1002.81 1002.39 1001.98 1001.57 1001.19 1000.84 1000.53 1000.26 1000.07 999.93 999.87 999.89 999.98 1000.14 1000.36 1000.65 1000.98 1001.36 1001.78
1011.95 1011.68 1011.40 1011.10 1010.79 1010.46 1010.13 1009.78 1009.42 1009.04 1008.66 1008.26 1007.86 1007.45 1007.03 1006.62 1006.22 1005.82 1005.42 1005.02 1004.62 1004.22 1003.82 1003.41 1002.99 1002.57 1002.14 1001.70 1001.28 1000.87 1000.49 1000.14 999.84 999.59 999.41 999.30 999.26 999.29 999.39 999.55 999.78 1000.06 1000.40 1000.77
1011.75 1011.53 1011.30 1011.05 1010.78 1010.50 1010.19 1009.86 1009.50 1009.12 1008.72 1008.30 1007.86 1007.41 1006.95 1006.50 1006.04 1005.60 1005.16 1004.73 1004.30 1003.88 1003.46 1003.04 1002.61 1002.17 1001.73 1001.29 1000.85 1000.42 1000.02 999.64 999.31 999.02 998.80 998.64 998.54 998.52 998.57 998.68 998.86 999.09 999.37 999.70
1011.71 1011.53 1011.32 1011.10 1010.85 1010.58 1010.27 1009.93 1009.56 1009.16 1008.72 1008.26 1007.78 1007.28 1006.78 1006.27 1005.77 1005.28 1004.80 1004.34 1003.88 1003.43 1002.99 1002.55 1002.11 1001.66 1001.20 1000.75 1000.30 999.85 999.43 999.03 998.66 998.34 998.08 997.87 997.73 997.66 997.65 997.71 997.84 998.02 998.26 998.56
Thickness
5667 5666 5665 5663 5662 5660 5660 5664 5662 5665 5664 5667 5667 5665 5665 5664 5663 5660 5659 5658 5657 5654 5652 5650 5648 5645 5642 5640 5637 5635 5633 5631 5629 5627 5623 5620 5616 5613 5609 5606 5604 5602 5600 5599
5657 5658 5658 5656 5657 5657 5655 5657 5658 5657 5657 5663 5662 5661 5659 5658 5655 5653 5652 5651 5650 5648 5646 5643 5641 5638 5635 5633 5630 5628 5626 5623 5620 5617 5613 5609 5606 5603 5599 5596 5594 5592 5591 5589
5652 5652 5651 5650 5654 5653 5652 5652 5652 5650 5653 5653 5652 5650 5650 5650 5649 5647 5645 5643 5641 5640 5640 5638 5635 5632 5629 5626 5623 5621 5618 5614 5611 5607 5603 5600 5597 5593 5590 5587 5585 5583 5581 5579
5644 5642 5636 5651 5655 5652 5647 5645 5646 5645 5645 5646 5645 5645 5645 5644 5642 5639 5637 5635 5634 5633 5632 5630 5628 5625 5622 5619 5617 5614 5610 5606 5602 5598 5595 5592 5589 5585 5582 5580 5577 5574 5572 5570
5637 5635 5640 5643 5644 5642 5640 5638 5640 5638 5637 5637 5639 5639 5638 5636 5634 5633 5632 5630 5628 5626 5624 5622 5620 5617 5615 5612 5609 5605 5602 5599 5595 5591 5586 5583 5581 5578 5575 5572 5569 5567 5565 5563
5630 5626 5628 5637 5639 5639 5635 5631 5634 5632 5630 5629 5631 5631 5632 5630 5627 5626 5624 5622 5619 5617 5616 5614 5612 5610 5607 5604 5601 5598 5595 5591 5588 5584 5580 5577 5574 5571 5568 5566 5563 5561 5559 5558
5625 5624 5630 5631 5630 5630 5622 5626 5627 5627 5624 5623 5624 5626 5625 5622 5619 5617 5614 5613 5612 5610 5608 5605 5604 5601 5599 5597 5593 5591 5587 5584 5581 5578 5574 5571 5567 5565 5562 5560 5557 5555 5554 5552
5620 5617 5620 5622 5620 5618 5620 5622 5620 5620 5619 5617 5617 5617 5616 5613 5610 5608 5606 5604 5603 5601 5599 5597 5595 5594 5592 5589 5586 5583 5580 5577 5575 5572 5568 5565 5562 5559 5557 5555 5552 5550 5549 5547
5617 5616 5616 5615 5614 5613 5614 5613 5613 5612 5612 5610 5608 5608 5607 5605 5603 5601 5598 5596 5595 5593 5591 5589 5587 5586 5584 5581 5579 5576 5574 5572 5569 5566 5563 5560 5557 5554 5552 5549 5548 5546 5544 5542
5606 5609 5607 5605 5605 5605 5606 5606 5605 5604 5603 5602 5601 5600 5599 5598 5596 5593 5591 5589 5587 5585 5584 5582 5580 5578 5577 5574 5572 5570 5568 5566 5564 5561 5558 5555 5551 5549 5547 5545 5543 5541 5539 5537
5602 5602 5598 5598 5598 5598 5598 5598 5597 5596 5595 5595 5594 5592 5591 5590 5588 5586 5583 5581 5579 5579 5577 5575 5573 5571 5569 5567 5566 5564 5562 5560 5557 5555 5552 5549 5546 5543 5541 5539 5537 5535 5534 5532
5598 5599 5596 5595 5593 5592 5591 5590 5589 5589 5588 5587 5587 5585 5583 5582 5580 5578 5576 5574 5572 5571 5570 5568 5566 5564 5562 5560 5559 5558 5556 5553 5550 5547 5545 5543 5539 5536 5532 5530 5528 5526 5524 5523
5592 5590 5590 5588 5586 5586 5585 5584 5583 5582 5581 5580 5579 5578 5576 5575 5573 5571 5569 5567 5566 5565 5563 5562 5560 5557 5555 5553 5552 5551 5549 5546 5543 5541 5539 5536 5534 5532 5529 5524 5520 5518 5516 5514
5582 5581 5579 5579 5578 5578 5578 5577 5576 5575 5574 5573 5572 5570 5569 5567 5566 5564 5562 5561 5559 5558 5557 5555 5553 5551 5549 5547 5545 5544 5542 5539 5536 5534 5532 5530 5528 5527 5525 5522 5519 5516 5510 5507
5575 5574 5574 5572 5571 5570 5569 5569 5568 5567 5566 5565 5564 5563 5562 5561 5559 5557 5555 5553 5552 5551 5550 5548 5546 5544 5541 5539 5538 5537 5535 5533 5530 5528 5526 5524 5521 5520 5519 5516 5514 5511 5507 5502
5569 5567 5565 5564 5563 5562 5561 5561 5561 5560 5558 5557 5557 5556 5555 5554 5552 5550 5547 5545 5544 5543 5542 5540 5538 5537 5535 5532 5531 5530 5528 5524 5522 5521 5520 5518 5515 5514 5512 5510 5507 5504 5501 5497
5561 5559 5558 5557 5556 5555 5554 5554 5554 5553 5552 5551 5549 5548 5547 5546 5545 5543 5541 5539 5538 5536 5535 5533 5531 5530 5528 5526 5525 5524 5522 5518 5514 5514 5513 5511 5509 5507 5505 5503 5500 5497 5494 5490
5557 5556 5555 5554 5552 5550 5548 5547 5547 5546 5545 5544 5542 5541 5540 5539 5538 5536 5534 5533 5531 5530 5529 5527 5525 5523 5522 5520 5519 5518 5516 5513 5510 5509 5507 5505 5503 5501 5498 5496 5493 5490 5488 5484
5549 5548 5547 5545 5544 5543 5541 5540 5539 5538 5537 5535 5534 5534 5533 5532 5531 5529 5528 5527 5525 5524 5522 5520 5517 5517 5516 5514 5511 5511 5509 5507 5505 5503 5501 5498 5496 5495 5492 5490 5487 5484 5481 5478
5541 5540 5539 5537 5535 5534 5532 5531 5530 5529 5529 5528 5527 5527 5526 5526 5524 5522 5521 5520 5518 5516 5515 5513 5511 5511 5509 5507 5503 5504 5502 5501 5499 5497 5495 5493 5491 5489 5486 5483 5481 5478 5475 5472
5533 5531 5529 5528 5527 5526 5525 5524 5523 5522 5521 5520 5520 5520 5519 5518 5516 5515 5514 5512 5510 5507 5506 5504 5504 5503 5502 5499 5496 5497 5495 5494 5492 5490 5488 5487 5485 5482 5480 5477 5475 5472 5469 5466
5525 5524 5522 5521 5520 5518 5517 5517 5515 5514 5513 5512 5511 5511 5511 5510 5508 5507 5505 5503 5502 5498 5498 5498 5497 5495 5493 5491 5490 5489 5488 5486 5485 5483 5482 5480 5477 5475 5473 5471 5468 5465 5463 5460
5517 5516 5515 5513 5512 5511 5509 5508 5507 5506 5505 5505 5504 5503 5502 5501 5500 5499 5498 5496 5494 5491 5491 5490 5489 5486 5484 5483 5483 5481 5480 5479 5477 5476 5474 5472 5470 5468 5466 5463 5461 5459 5456 5454
5509 5508 5506 5505 5504 5503 5502 5501 5499 5498 5497 5496 5495 5493 5492 5492 5492 5491 5490 5487 5485 5483 5483 5482 5479 5478 5476 5476 5475 5474 5473 5471 5470 5468 5466 5464 5462 5460 5458 5456 5454 5451 5449 5446
5501 5500 5499 5497 5496 5496 5495 5493 5491 5490 5489 5488 5487 5486 5484 5483 5483 5482 5481 5479 5477 5476 5476 5475 5472 5470 5470 5470 5468 5467 5465 5464 5462 5460 5458 5456 5454 5452 5450 5448 5446 5444 5441 5439
5493 5492 5491 5490 5489 5488 5486 5485 5484 5483 5481 5480 5479 5478 5476 5474 5473 5473 5472 5472 5471 5469 5469 5468 5466 5464 5464 5463 5461 5460 5458 5456 5454 5452 5451 5449 5447 5445 5443 5441 5438 5436 5434 5432
5485 5484 5483 5482 5481 5480 5479 5477 5476 5475 5474 5472 5471 5469 5468 5467 5466 5465 5465 5465 5464 5463 5462 5460 5459 5458 5457 5455 5453 5452 5451 5449 5447 5445 5443 5441 5440 5438 5436 5433 5431 5429 5427 5425